Skip Page Navigation
NASA JPL Caltech
NASA Logo - Jet Propulsion Laboratory + View the NASA Portal
+ Near-Earth Object (NEO) Program
Search JPL
JPL Home Earth Solar System Stars & Galaxies Technology
JPL Solar System Dynamics
BODIES ORBITS EPHEMERIDES TOOLS PHYSICAL DATA DISCOVERY FAQ SITE MAP
JPL Small-Body Database Browser
Search: [ help ]  
(2012 XH112)
Classification: Apollo [NEO]          SPK-ID: 3620677
Ephemeris | Orbit Diagram | Orbital Elements | Physical Parameters | Close-Approach Data ]

[ hide orbit diagram ]
Orbit Diagram
Note: Make sure you have Java enabled on your browser to see the applet. This applet is provided as a 3D orbit visualization tool. The applet was implemented using 2-body methods, and hence should not be used for determining accurate long-term trajectories (over several years or decades) or planetary encounter circumstances. For accurate long-term ephemerides, please instead use our Horizons system.
Orbit Viewer

Additional Notes: the orbits shown in the applet are color coded. The planets are white lines, and the asteroid/comet is a blue line. The bright white line indicates the portion of the orbit that is above the ecliptic plane, and the darker portion is below the ecliptic plane. Likewise for the asteroid/comet orbit, the light blue indicates the portion above the ecliptic plane, and the dark blue the portion below the ecliptic plane.

Orbit Viewer applet originally written and kindly provided by Osamu Ajiki (AstroArts), and further modified by Ron Baalke (JPL).


Orbital Elements at Epoch 2456400.5 (2013-Apr-18.0) TDB
Reference: JPL 5 (heliocentric ecliptic J2000)
 Element Value Uncertainty (1-sigma)   Units 
e .6136379577722426 0.00055814  
a 2.094650594712399 0.0027669 AU
q .8092934815266692 0.00010012 AU
i 4.007286337299731 0.0029215 deg
node 83.48474538261476 0.0001472 deg
peri 58.713750072169 0.00047132 deg
M 27.49955402570136 0.051161 deg
tp 2456315.915855547258
(2013-Jan-23.41585555)
0.010229 JED
period 1107.301302942148
3.03
2.194
0.006007
d
yr
n .3251147623898429 0.00064417 deg/d
Q 3.38000770789813 0.0044647 AU
  Orbit Determination Parameters
   # obs. used (total)      48  
   data-arc span      3 days  
   first obs. used      2012-12-12  
   last obs. used      2012-12-15  
   planetary ephem.      DE405  
   SB-pert. ephem.      SB405-CPV-2  
   condition code      7  
   fit RMS      .345  
   data source      ORB  
   producer      Otto Matic  
   solution date      2012-Dec-18 00:55:22  

Additional Information
 Earth MOID = .00104789 AU 
 T_jup = 3.484 
[ show covariance matrix ]

Ephemeris | Orbit Diagram | Orbital Elements | Physical Parameters | Close-Approach Data ]

Physical Parameter Table
Parameter Symbol Value Units Sigma Reference Notes
absolute magnitude H 26.927 mag .49236 5 autocmod 2.5b

[ show close-approach data ]
Ephemeris | Orbit Diagram | Orbital Elements | Physical Parameters | Close-Approach Data ]
ABOUT SSD CREDITS/AWARDS PRIVACY/COPYRIGHT GLOSSARY LINKS
FirstGov 2013-May-22 21:04 UT
(server date/time)  
NASA Home Page
Site Manager:   Donald K. Yeomans
Webmaster  Alan B. Chamberlin